Location: Rowland
(34.5359°N, 79.2929°W)
Time: 14:05:50
(UTC+00:00)

SR - Pass Details

Date: 11 October 2022
Orbit: 577 x 875 km, 66.7° (Epoch: 28 November)

Event Time Altitude Azimuth Distance (km) Brightness Sun altitude
Rises 10:23:26 0° 318° (NW) 3,198 - -12.3°
Reaches altitude 10° 10:26:23 10° 303° (WNW) 2,211 - -11.7°
Exits shadow 10:27:06 13° 297° (WNW) 2,008 ? -11.6°
Maximum altitude 10:30:05 21° 255° (WSW) 1,526 ? -11.0°
Drops below altitude 10° 10:33:34 10° 206° (SSW) 2,058 ? -10.3°
Sets 10:36:13 0° 190° (S) 2,914 ? -9.7°
